Skip Page Navigation
NASA JPL Caltech
NASA Logo - Jet Propulsion Laboratory + View the NASA Portal
+ Near-Earth Object (NEO) Program
Search JPL
JPL Home Earth Solar System Stars & Galaxies Technology
JPL Solar System Dynamics
BODIES ORBITS EPHEMERIDES TOOLS PHYSICAL DATA DISCOVERY FAQ SITE MAP
JPL Small-Body Database Browser
Search: [ help ]  
13503 (1988 RH6)
Classification: Main-belt Asteroid          SPK-ID: 2013503
Ephemeris | Orbit Diagram | Orbital Elements | Physical Parameters | Discovery Circumstances ]

[ show orbit diagram ]
Orbital Elements at Epoch 2457000.5 (2014-Dec-09.0) TDB
Reference: JPL 14 (heliocentric ecliptic J2000)
 Element Value Uncertainty (1-sigma)   Units 
e .1308249604619021 6.3054e-08  
a 2.245293758731106 1.1413e-08 AU
q 1.951553291519754 1.4116e-07 AU
i 7.007239620253318 5.5573e-06 deg
node 318.652573037228 4.8291e-05 deg
peri 52.51428832352796 5.2327e-05 deg
M 263.4931756754987 2.0406e-05 deg
tp 2457329.930423587438
(2015-Nov-03.43042359)
7.0324e-05 JED
period 1228.876334099501
3.36
9.3694e-06
2.565e-08
d
yr
n .2929505516629561 2.2336e-09 deg/d
Q 2.539034225942459 1.2906e-08 AU
  Orbit Determination Parameters
   # obs. used (total)      914  
   data-arc span      20739 days (56.78 yr)  
   first obs. used      1958-11-11  
   last obs. used      2015-08-23  
   planetary ephem.      DE431  
   SB-pert. ephem.      SB431-BIG16  
   condition code      0  
   fit RMS      .483  
   data source      ORB  
   producer      Otto Matic  
   solution date      2015-Sep-02 14:38:54  

Additional Information
 Earth MOID = .95927 AU 
 T_jup = 3.610 
[ show covariance matrix ]

Ephemeris | Orbit Diagram | Orbital Elements | Physical Parameters | Discovery Circumstances ]

Physical Parameter Table
Parameter Symbol Value Units Sigma Reference Notes
absolute magnitude H 14.0 mag n/a MPO279658  
rotation period rot_per 6.9 h n/a LCDB (Rev. 2015-July); Warner et al., 2009 Result based on less than full coverage, so that the period may be wrong by 30 percent or so.
Published Reference List:
[Polishook, D.; Ofek, E.O.; Waszczak, A.; Kulkarni, S.R.; et al. (2011). MNRAS 421, 2094-2108.]

13503 (1988 RH6)          Discovered 1988-Sep-06 by Debehogne, H. at La Silla
Reference: 20000222/Numbers.arcLast Updated: 2004-04-19

Alternate Designations
 1988 RH6 = 1958 VG = 1978 TA1 = 1985 VN5 = 1998 QQ9 = 1998 QT27 
Ephemeris | Orbit Diagram | Orbital Elements | Physical Parameters | Discovery Circumstances ]
ABOUT SSD CREDITS/AWARDS PRIVACY/COPYRIGHT GLOSSARY LINKS
FirstGov 2015-Sep-04 01:32 UT
(server date/time)  
NASA Home Page
Site Manager:   Ryan S. Park
Webmaster  Alan B. Chamberlin